SQ9IWE-13 Weather Reports


Display with metric or nautical units.
time (UTC)temp
F
wind
direction
speed
MPH
gust
MPH
rain 1hr
in
rain 24hr
in
rain mn
in
humidity
%
barometer
mb
20260506175001 70 0.0 0.0 0.00 0.00 0.00 58 1005.3
20260506174001 70 0.0 0.0 0.00 0.00 0.00 58 1005.2
20260506173000 69 0.0 0.0 0.00 0.00 0.00 60 1005.2
20260506172000 69 0.0 0.0 0.00 0.00 0.00 64 1005.3
20260506171000 68 0.0 0.0 0.00 0.00 0.00 66 1005.3
20260506170000 68 0.0 0.0 0.00 0.00 0.00 68 1005.3
20260506165000 68 0.0 0.0 0.00 0.00 0.00 64 1005.3
20260506164000 67 0.0 0.0 0.00 0.00 0.00 67 1005.4
20260506163000 67 0.0 0.0 0.00 0.00 0.00 68 1005.4
20260506162000 67 0.0 0.0 0.00 0.00 0.00 66 1005.5
20260506161000 67 0.0 0.0 0.00 0.00 0.00 63 1005.5
20260506160000 67 0.0 0.0 0.00 0.00 0.00 66 1005.5
20260506155000 69 0.0 0.0 0.00 0.00 0.00 62 1005.8
20260506154001 74 0.0 0.0 0.00 0.00 0.00 47 1005.5
20260506153001 75 0.0 0.0 0.00 0.00 0.00 45 1005.6
20260506152001 76 0.0 0.0 0.00 0.00 0.00 43 1005.7
20260506151001 77 0.0 0.0 0.00 0.00 0.00 43 1005.6
20260506150002 77 0.0 0.0 0.00 0.00 0.00 42 1005.7
20260506145001 77 0.0 0.0 0.00 0.00 0.00 44 1005.8
20260506144001 77 0.0 0.0 0.00 0.00 0.00 43 1005.9
20260506143001 77 0.0 0.0 0.00 0.00 0.00 44 1006.0
20260506142001 78 0.0 0.0 0.00 0.00 0.00 42 1006.0
20260506141001 78 0.0 0.0 0.00 0.00 0.00 42 1006.0
20260506140001 78 0.0 0.0 0.00 0.00 0.00 42 1006.1
20260506135001 77 0.0 0.0 0.00 0.00 0.00 42 1006.2
20260506134001 77 0.0 0.0 0.00 0.00 0.00 43 1006.1
20260506133001 77 0.0 0.0 0.00 0.00 0.00 44 1006.2
20260506132001 75 0.0 0.0 0.00 0.00 0.00 44 266.4
20260506131001 77 0.0 0.0 0.00 0.00 0.00 44 1006.3
20260506130001 78 0.0 0.0 0.00 0.00 0.00 44 1006.4
20260506125001 77 0.0 0.0 0.00 0.00 0.00 45 1006.4
20260506124001 76 0.0 0.0 0.00 0.00 0.00 46 1006.5
20260506123001 77 0.0 0.0 0.00 0.00 0.00 45 1006.6
20260506122001 77 0.0 0.0 0.00 0.00 0.00 45 1006.7
20260506121001 77 0.0 0.0 0.00 0.00 0.00 44 1006.7
20260506120001 77 0.0 0.0 0.00 0.00 0.00 45 1006.5
20260506115001 79 0.0 0.0 0.00 0.00 0.00 42 1006.7
20260506114002 83 0.0 0.0 0.00 0.00 0.00 40 1006.0
20260506113001 82 0.0 0.0 0.00 0.00 0.00 41 1006.7
20260506112001 80 0.0 0.0 0.00 0.00 0.00 42 1006.8
20260506111001 81 0.0 0.0 0.00 0.00 0.00 42 1006.7
20260506110001 81 0.0 0.0 0.00 0.00 0.00 42 1006.7
20260506105001 80 0.0 0.0 0.00 0.00 0.00 43 1006.8
20260506104001 80 0.0 0.0 0.00 0.00 0.00 44 1006.8
20260506103001 80 0.0 0.0 0.00 0.00 0.00 43 1006.8
20260506102000 77 0.0 0.0 0.00 0.00 0.00 48 1007.0
20260506101000 75 0.0 0.0 0.00 0.00 0.00 48 6.0
20260506100000 77 0.0 0.0 0.00 0.00 0.00 48 1006.8
20260506095000 76 0.0 0.0 0.00 0.00 0.00 46 1006.7
20260506094000 77 0.0 0.0 0.00 0.00 0.00 45 1006.7
20260506093000 80 0.0 0.0 0.00 0.00 0.00 44 1006.7
20260506091000 79 0.0 0.0 0.00 0.00 0.00 46 1006.5
20260506090000 78 0.0 0.0 0.00 0.00 0.00 46 1006.5
20260506085000 78 0.0 0.0 0.00 0.00 0.00 46 1006.5
20260506084001 79 0.0 0.0 0.00 0.00 0.00 47 1006.5
20260506083001 77 0.0 0.0 0.00 0.00 0.00 51 1006.5
20260506082001 78 0.0 0.0 0.00 0.00 0.00 47 1006.4
20260506081001 76 0.0 0.0 0.00 0.00 0.00 51 1006.5
20260506073001 72 0.0 0.0 0.00 0.00 0.00 54 1006.2
20260506072001 70 0.0 0.0 0.00 0.00 0.00 55 1006.3
20260506071001 70 0.0 0.0 0.00 0.00 0.00 55 1006.2
20260506062001 68 0.0 0.0 0.00 0.00 0.00 56 1006.1
20260506061001 69 0.0 0.0 0.00 0.00 0.00 55 1006.0
20260506051001 68 0.0 0.0 0.00 0.00 0.00 56 1005.9
20260506045001 67 0.0 0.0 0.00 0.00 0.00 57 1005.8
20260506044001 66 0.0 0.0 0.00 0.00 0.00 58 1005.7
20260506043001 62 0.0 0.0 0.00 0.00 0.00 63 1005.7
20260506042001 64 0.0 0.0 0.00 0.00 0.00 60 1005.8
20260506041001 62 0.0 0.0 0.00 0.00 0.00 63 1005.6
20260506040001 58 0.0 0.0 0.00 0.00 0.00 68 1005.6
20260506035001 59 0.0 0.0 0.00 0.00 0.00 67 1005.6
20260506034001 59 0.0 0.0 0.00 0.00 0.00 66 1005.6
20260506033000 59 0.0 0.0 0.00 0.00 0.00 65 1005.5
20260506032000 60 0.0 0.0 0.00 0.00 0.00 64 1005.5
20260506031000 60 0.0 0.0 0.00 0.00 0.00 64 1005.6
20260506030000 59 0.0 0.0 0.00 0.00 0.00 65 1005.7
20260506025000 59 0.0 0.0 0.00 0.00 0.00 64 1005.6
20260506024000 59 0.0 0.0 0.00 0.00 0.00 64 1005.7
20260506023000 59 0.0 0.0 0.00 0.00 0.00 64 1005.6
20260506022000 59 0.0 0.0 0.00 0.00 0.00 64 1005.6
20260506021000 58 0.0 0.0 0.00 0.00 0.00 65 6.0
20260506020000 58 0.0 0.0 0.00 0.00 0.00 65 1005.5
20260506015000 58 0.0 0.0 0.00 0.00 0.00 64 1005.4
20260506014000 58 0.0 0.0 0.00 0.00 0.00 63 1005.4
20260506013001 59 0.0 0.0 0.00 0.00 0.00 62 1005.4
20260506012001 59 0.0 0.0 0.00 0.00 0.00 60 1005.3
20260506011001 60 0.0 0.0 0.00 0.00 0.00 59 1005.5
20260506010001 60 0.0 0.0 0.00 0.00 0.00 59 1005.6
20260506005001 60 0.0 0.0 0.00 0.00 0.00 58 1005.6
20260506004001 61 0.0 0.0 0.00 0.00 0.00 57 1005.6
20260506003001 60 0.0 0.0 0.00 0.00 0.00 57 1005.5
20260506002001 61 0.0 0.0 0.00 0.00 0.00 57 1005.6
20260506001001 61 0.0 0.0 0.00 0.00 0.00 57 1005.7
20260506000001 61 0.0 0.0 0.00 0.00 0.00 57 1005.7
20260505235001 61 0.0 0.0 0.00 0.00 0.00 56 1005.9
20260505234001 61 0.0 0.0 0.00 0.00 0.00 57 1005.9
20260505233001 60 0.0 0.0 0.00 0.00 0.00 59 1006.0
20260505232001 61 0.0 0.0 0.00 0.00 0.00 58 1006.0
20260505231001 61 0.0 0.0 0.00 0.00 0.00 57 1006.1
20260505230001 62 0.0 0.0 0.00 0.00 0.00 55 1006.1
20260505225001 63 0.0 0.0 0.00 0.00 0.00 53 1006.1
20260505224001 63 0.0 0.0 0.00 0.00 0.00 53 1006.2
20260505223001 63 0.0 0.0 0.00 0.00 0.00 53 1006.2
20260505222001 64 0.0 0.0 0.00 0.00 0.00 54 1006.3
20260505221001 65 0.0 0.0 0.00 0.00 0.00 52 1006.3
20260505220001 65 0.0 0.0 0.00 0.00 0.00 51 1006.4
20260505215001 65 0.0 0.0 0.00 0.00 0.00 51 1006.5
20260505214001 65 0.0 0.0 0.00 0.00 0.00 49 1006.5
20260505213001 66 0.0 0.0 0.00 0.00 0.00 48 1006.5
20260505212001 66 0.0 0.0 0.00 0.00 0.00 47 1006.7
20260505211001 67 0.0 0.0 0.00 0.00 0.00 45 1006.6
20260505210001 67 0.0 0.0 0.00 0.00 0.00 44 1006.6
20260505205000 67 0.0 0.0 0.00 0.00 0.00 45 1006.5
20260505204001 67 0.0 0.0 0.00 0.00 0.00 45 1006.5
20260505203000 67 0.0 0.0 0.00 0.00 0.00 45 1006.6
20260505202000 67 0.0 0.0 0.00 0.00 0.00 45 1006.5
20260505201000 68 0.0 0.0 0.00 0.00 0.00 44 1006.5
20260505200000 68 0.0 0.0 0.00 0.00 0.00 44 1006.5
20260505195000 69 0.0 0.0 0.00 0.00 0.00 43 1006.5
20260505194000 69 0.0 0.0 0.00 0.00 0.00 43 1006.5
20260505193000 69 0.0 0.0 0.00 0.00 0.00 42 1006.6
20260505192000 70 0.0 0.0 0.00 0.00 0.00 41 1006.5
20260505191000 70 0.0 0.0 0.00 0.00 0.00 41 1006.5
20260505190001 70 0.0 0.0 0.00 0.00 0.00 40 65.9
20260505185001 71 0.0 0.0 0.00 0.00 0.00 40 1006.6
20260505184001 72 0.0 0.0 0.00 0.00 0.00 39 1006.4
20260505183001 72 0.0 0.0 0.00 0.00 0.00 38 1006.4
20260505182001 73 0.0 0.0 0.00 0.00 0.00 37 1006.3
20260505181001 73 0.0 0.0 0.00 0.00 0.00 36 1006.2
20260505180001 73 0.0 0.0 0.00 0.00 0.00 35 1006.3